Content
SEND FEEDBACK

Daily
Averages
Monthly
Summary
United States of America

ITHACA, NEW YORK


Home > North America > United States > New York
Elevation: 1094 feet     Latitude: 42 29N     Longitude: 076 28W

WEATHER
 
SELECT A DAY
Number of Records: 159,173;   Date Range: 1/1/95 - 8/30/14
 
SHARE

PRINT THIS DATA

[ ← Previous Day ]
WEATHER ALMANAC - JANUARY 10, 2013
[ Next Day → ]
[ °C ]   °F
Weather ElementAverageHighLow
Temperature33 °F36 °F (2:56 am)27.1 °F (6:56 pm)
Dewpoint25.3 °F27.1 °F (6:56 pm)24.1 °F (5:56 pm)
Humidity73.8 %100 % (6:56 pm)65 % (1:56 pm)
Barometer30.54 in30.59 in (9:56 am)30.40 in (2:56 am)
Wind Speed8 mph18.4 mph (2:56 am)
Wind Gust19.6 mph (5:56 am)
Weather ElementAverage
Visibility10 mi
Wind DirectionWSW (240 °)

Weather ElementTotal
Precipitation---
Heating Degree Days33.5 (Base 65)
Averaged from 22 records on January 10, 2013
WEATHER CONDITIONS BREAKOUT
WIND DIRECTION BREAKOUT
WEATHER BY HOUR - JANUARY 10, 2013
[ °C ]   °F
Local TimeTemperatureDewpointHumidityBarometerVisibilityWind DirectionWind SpeedGust SpeedPrecipitationEventsConditions
2:56 AM36.0 °F26.1 °F67 %30.40 in10.0 miNW (310°)18.4 mphOvercast
3:56 AM34.9 °F25.2 °F68 %30.44 in10.0 miNW (320°)11.5 mphOvercast
4:56 AM34.0 °F25.2 °F70 %30.45 in10.0 miWNW (300°)15.0 mphOvercast
5:56 AM34.0 °F25.2 °F70 %30.48 in10.0 miNW (320°)11.5 mph19.6 mphOvercast
6:20 AM33.8 °F24.8 °F70 %30.46 in10.0 miNW (310°)8.1 mphOvercast
6:56 AM34.0 °F25.2 °F70 %30.52 in10.0 miNW (320°)10.4 mphMostly Cloudy
7:56 AM32.9 °F26.1 °F76 %30.55 in10.0 miNW (310°)5.8 mphOvercast
8:56 AM34.0 °F26.1 °F73 %30.58 in10.0 miNW (320°)9.2 mphOvercast
9:56 AM34.9 °F26.1 °F70 %30.59 in10.0 miNW (320°)12.7 mphMostly Cloudy
10:56 AM34.9 °F26.1 °F70 %30.59 in10.0 miNNW (330°)13.8 mphMostly Cloudy
11:56 AM34.9 °F26.1 °F70 %30.57 in10.0 miNW (310°)6.9 mphOvercast
12:56 PM34.9 °F26.1 °F70 %30.56 in10.0 miNNW (330°)10.4 mphMostly Cloudy
1:56 PM36.0 °F25.2 °F65 %30.56 in10.0 miNorth (350°)8.1 mphMostly Cloudy
2:56 PM36.0 °F25.2 °F65 %30.57 in10.0 miNorth (350°)4.6 mphScattered Clouds
3:56 PM36.0 °F26.1 °F67 %30.57 in10.0 miNNW (340°)4.6 mphPartly Cloudy
4:56 PM34.0 °F25.2 °F70 %30.57 in10.0 miNE (40°)3.5 mphClear
5:56 PM29.1 °F24.1 °F81 %30.57 in10.0 miCalmClear
6:56 PM27.1 °F27.1 °F100 %30.57 in10.0 miEast (90°)3.5 mphClear
7:56 PM28.0 °F24.1 °F85 %30.56 in10.0 miEast (80°)4.6 mphClear
8:56 PM29.1 °F24.1 °F81 %30.57 in10.0 miENE (70°)4.6 mphClear
9:56 PM29.1 °F24.1 °F81 %30.56 in10.0 miEast (80°)3.5 mphClear
10:56 PM28.0 °F24.1 °F85 %30.54 in10.0 miEast (80°)5.8 mphClear
Hourly data recorded from KITH, located miles away from Ithaca, New York







STORIES FROM OUR PARTNERS